KA9CBS Weather Reports


time (UTC)temp
F
wind
direction
speed
knots
gust
knots
rain 1hr
in
rain 24hr
in
rain mn
in
humidity
%
barometer
mb
20260505075400 67 304 5.2 8.7 0.00 0.00 0.00 64 1008.1
20260505074858 67 319 7.8 8.7 0.00 0.00 0.00 64 1007.9
20260505074355 67 286 6.1 12.2 0.00 0.00 0.00 64 1007.8
20260505073852 67 274 4.3 7.8 0.00 0.00 0.00 64 1007.9
20260505073349 67 309 6.1 11.3 0.00 0.00 0.00 64 1008.3
20260505072846 67 285 8.7 11.3 0.00 0.00 0.00 63 1007.9
20260505072342 67 297 7.0 9.6 0.00 0.00 0.00 63 1007.8
20260505071838 68 304 5.2 8.7 0.00 0.00 0.00 63 1007.8
20260505071335 68 290 7.0 12.2 0.00 0.00 0.00 62 1007.6
20260505070833 68 306 12.2 13.9 0.00 0.00 0.00 62 1007.7
20260505070329 68 278 7.8 12.2 0.00 0.00 0.00 62 1007.8
20260505065825 68 280 7.0 9.6 0.00 0.00 0.00 62 1007.7
20260505065322 68 272 9.6 13.9 0.00 0.00 0.00 61 1007.7
20260505064819 69 290 8.7 13.9 0.00 0.00 0.00 61 1007.7
20260505064316 68 293 9.6 13.0 0.00 0.00 0.00 61 1007.6
20260505063814 69 283 7.8 17.4 0.00 0.00 0.00 61 1007.4
20260505063310 69 293 8.7 14.8 0.00 0.00 0.00 61 1007.5
20260505062806 69 286 13.0 19.1 0.00 0.00 0.00 61 1007.3
20260505062304 69 280 7.8 12.2 0.00 0.00 0.00 61 1007.4
20260505061800 69 267 10.4 14.8 0.00 0.00 0.00 60 1007.4
20260505061258 69 297 7.8 14.8 0.00 0.00 0.00 60 1007.4
20260505060755 69 291 7.0 13.9 0.00 0.00 0.00 60 1007.3
20260505060253 69 280 10.4 15.6 0.00 0.00 0.00 60 1007.2
20260505055748 69 307 7.8 15.6 0.00 0.00 0.00 60 1007.5
20260505055244 69 307 10.4 17.4 0.00 0.00 0.00 59 1007.4
20260505054742 69 315 10.4 17.4 0.00 0.00 0.00 59 1007.3
20260505054239 70 288 7.0 14.8 0.00 0.00 0.00 60 1007.3
20260505053738 70 305 11.3 15.6 0.00 0.00 0.00 59 1007.3
20260505053234 70 268 13.0 15.6 0.00 0.00 0.00 59 1007.4
20260505052731 70 238 7.8 19.1 0.00 0.00 0.00 59 1007.0
20260505052228 70 287 13.0 17.4 0.00 0.00 0.00 59 1006.9
20260505051725 70 266 9.6 13.9 0.00 0.00 0.00 59 1007.1
20260505051223 70 296 13.0 22.6 0.00 0.00 0.00 59 1006.9
20260505050721 70 293 13.0 18.2 0.00 0.00 0.00 59 1006.8
20260505050219 70 299 14.8 18.2 0.00 0.00 0.00 59 1006.7
20260505041648 70 267 7.0 13.0 0.00 0.00 0.00 60 1007.1
20260505041146 69 247 8.7 13.9 0.00 0.00 0.00 59 1007.2
20260505040643 70 285 7.0 13.0 0.00 0.00 0.00 59 1007.2
20260505040140 69 271 9.6 11.3 0.00 0.00 0.00 60 1007.4
20260505035636 70 299 7.8 13.9 0.00 0.00 0.00 59 1007.3
20260505035132 70 281 7.0 9.6 0.00 0.00 0.00 59 1007.4
20260505034629 70 281 4.3 9.6 0.00 0.00 0.00 59 1007.1
20260505034126 70 292 6.1 8.7 0.00 0.00 0.00 59 1007.4
20260505033623 70 275 6.1 13.0 0.00 0.00 0.00 59 1007.6
20260505033121 70 269 5.2 9.6 0.00 0.00 0.00 58 1007.5
20260505032619 71 279 7.8 11.3 0.00 0.00 0.00 57 1007.6
20260505032115 71 271 7.0 9.6 0.00 0.00 0.00 56 1007.5
20260505031613 71 271 6.1 9.6 0.00 0.00 0.00 57 1007.5
20260505031108 71 251 7.8 9.6 0.00 0.00 0.00 56 1007.1
20260505030606 71 251 7.8 9.6 0.00 0.00 0.00 56 1007.1
20260505025557 71 299 7.8 11.3 0.00 0.00 0.00 57 1007.1
20260505025056 71 270 6.1 9.6 0.00 0.00 0.00 56 1007.0
20260505024548 71 299 9.6 13.0 0.00 0.00 0.00 55 1007.1
20260505024045 71 281 8.7 13.0 0.00 0.00 0.00 55 1006.6
20260505023542 72 302 9.6 13.9 0.00 0.00 0.00 55 1006.5
20260505023039 71 227 7.8 11.3 0.00 0.00 0.00 56 1006.5
20260505022536 71 250 7.0 12.2 0.00 0.00 0.00 55 1006.6
20260505022034 71 238 6.1 9.6 0.00 0.00 0.00 56 1006.7
20260505021530 71 263 7.0 12.2 0.00 0.00 0.00 55 1006.8
20260505021027 71 251 7.8 13.0 0.00 0.00 0.00 55 1006.8
20260505020526 72 287 7.8 9.6 0.00 0.00 0.00 55 1006.5
20260505020024 72 289 7.0 13.9 0.00 0.00 0.00 55 1006.7
20260505015521 72 277 7.8 11.3 0.00 0.00 0.00 54 1006.6
20260505015018 72 284 9.6 13.9 0.00 0.00 0.00 54 1006.3
20260505014515 72 278 7.0 13.0 0.00 0.00 0.00 54 1006.3
20260505014012 72 224 6.1 12.2 0.00 0.00 0.00 54 1006.5
20260505013509 72 251 9.6 13.0 0.00 0.00 0.00 54 1006.2
20260505013007 72 263 7.8 9.6 0.00 0.00 0.00 54 1006.2
20260505012504 72 308 9.6 12.2 0.00 0.00 0.00 53 1006.2
20260505012001 73 279 7.8 12.2 0.00 0.00 0.00 53 1006.1
20260505011456 73 288 9.6 13.0 0.00 0.00 0.00 53 1006.0
20260505010954 73 292 9.6 13.0 0.00 0.00 0.00 52 1005.8
20260505010449 73 291 9.6 13.0 0.00 0.00 0.00 52 1006.1
20260505005946 73 284 10.4 12.2 0.00 0.00 0.00 52 1006.0
20260505005443 74 278 7.8 14.8 0.00 0.00 0.00 51 1006.0
20260505004941 74 285 13.0 19.1 0.00 0.00 0.00 50 1005.8
20260505004437 74 292 6.1 9.6 0.00 0.00 0.00 52 1005.8
20260505003934 74 274 9.6 12.2 0.00 0.00 0.00 51 1005.8
20260505003431 74 278 7.0 9.6 0.00 0.00 0.00 51 1005.9
20260505002927 74 307 13.9 15.6 0.00 0.00 0.00 50 1005.9
20260505002424 74 284 7.8 13.0 0.00 0.00 0.00 50 1005.7
20260505001922 75 247 9.6 15.6 0.00 0.00 0.00 50 1005.7
20260505001419 75 258 7.8 12.2 0.00 0.00 0.00 50 1005.7
20260505000916 75 263 5.2 14.8 0.00 0.00 0.00 49 1005.7
20260505000414 75 295 9.6 13.0 0.00 0.00 0.00 49 1005.4
20260504235910 75 233 12.2 18.2 0.00 0.00 0.00 48 1005.6
20260504235408 75 280 7.8 13.9 0.00 0.00 0.00 49 1005.5
20260504234904 76 258 8.7 14.8 0.00 0.00 0.00 49 1005.4
20260504234402 76 291 9.6 15.6 0.00 0.00 0.00 48 1005.7
20260504233858 76 294 9.6 14.8 0.00 0.00 0.00 48 1005.7
20260504233354 76 279 11.3 13.0 0.00 0.00 0.00 47 1005.7
20260504232850 76 276 10.4 15.6 0.00 0.00 0.00 47 1005.9
20260504232348 76 272 13.9 19.1 0.00 0.00 0.00 46 1005.9
20260504231844 76 255 9.6 17.4 0.00 0.00 0.00 46 1006.2
20260504231341 76 299 13.9 17.4 0.00 0.00 0.00 46 1006.1
20260504230837 76 284 9.6 18.2 0.00 0.00 0.00 47 1006.0
20260504230335 77 275 10.4 11.3 0.00 0.00 0.00 47 1006.0
20260504225834 77 278 9.6 11.3 0.00 0.00 0.00 47 1006.1
20260504225330 77 273 9.6 11.3 0.00 0.00 0.00 47 1006.2
20260504224827 76 277 13.9 15.6 0.00 0.00 0.00 46 1006.1
20260504224324 76 273 7.0 11.3 0.00 0.00 0.00 47 1006.4
20260504223820 75 277 10.4 12.2 0.00 0.00 0.00 46 1006.2
20260504223316 75 328 7.8 9.6 0.00 0.00 0.00 49 1006.4
20260504222813 75 267 4.3 8.7 0.00 0.00 0.00 47 1006.2
20260504222310 75 258 3.5 8.7 0.00 0.00 0.00 49 1006.4
20260504221809 75 287 7.0 11.3 0.00 0.00 0.00 47 1006.5
20260504221305 75 233 6.1 11.3 0.00 0.00 0.00 47 1006.5
20260504220801 75 279 8.7 13.0 0.00 0.00 0.00 46 1006.5
20260504220258 75 272 10.4 14.8 0.00 0.00 0.00 46 1006.8
20260504215756 75 258 8.7 13.0 0.00 0.00 0.00 48 1006.8
20260504215252 75 262 7.8 9.6 0.00 0.00 0.00 49 1006.6
20260504214748 75 238 4.3 6.1 0.00 0.00 0.00 47 1006.4
20260504214244 74 246 6.1 7.0 0.00 0.00 0.00 47 1007.1
20260504213741 74 210 2.6 5.2 0.00 0.00 0.00 47 1006.9
20260504213238 74 201 2.6 2.6 0.00 0.00 0.00 45 1007.5
20260504212735 74 178 0.9 2.6 0.00 0.00 0.00 44 1008.1
20260504212231 74 304 5.2 6.1 0.00 0.00 0.00 44 1008.3
20260504211729 74 276 4.3 7.0 0.00 0.00 0.00 45 1008.5
20260504211225 75 273 7.0 8.7 0.00 0.00 0.00 43 1008.3
20260504210722 74 263 7.0 9.6 0.00 0.00 0.00 44 1008.5
20260504210220 75 297 7.8 11.3 0.00 0.00 0.00 43 1008.5
20260504205716 75 282 6.1 11.3 0.00 0.00 0.00 44 1008.7
20260504205214 75 283 8.7 9.6 0.00 0.00 0.00 43 1009.0
20260504204706 74 266 10.4 13.0 0.00 0.00 0.00 43 1008.9
20260504204205 75 283 6.1 7.8 0.00 0.00 0.00 43 1008.7
20260504203704 75 254 3.5 7.8 0.00 0.00 0.00 44 1008.8
20260504203201 75 260 3.5 9.6 0.00 0.00 0.00 45 1008.7
20260504202700 75 298 7.8 8.7 0.00 0.00 0.00 43 1008.8
20260504202158 75 289 10.4 11.3 0.00 0.00 0.00 43 1008.7
20260504201655 75 278 10.4 13.0 0.00 0.00 0.00 43 1008.6
20260504201152 75 278 7.0 13.9 0.00 0.00 0.00 44 1008.7
20260504200649 75 277 3.5 7.0 0.00 0.00 0.00 45 1008.8
20260504200146 75 272 6.1 11.3 0.00 0.00 0.00 44 1008.6
20260504195642 75 281 5.2 9.6 0.00 0.00 0.00 44 1008.5
20260504195138 75 280 5.2 9.6 0.00 0.00 0.00 43 1008.5
20260504194635 75 252 7.0 13.0 0.00 0.00 0.00 43 1008.3
20260504194131 76 300 9.6 14.8 0.00 0.00 0.00 43 1008.5
20260504193627 76 296 9.6 9.6 0.00 0.00 0.00 43 1008.6
20260504193126 76 258 8.7 13.0 0.00 0.00 0.00 44 1008.4
20260504192624 76 264 9.6 13.9 0.00 0.00 0.00 44 1008.4
20260504192121 76 291 9.6 13.0 0.00 0.00 0.00 46 1008.6
20260504191620 76 316 12.2 18.2 0.00 0.00 0.00 43 1008.3
20260504191115 76 316 12.2 18.2 0.00 0.00 0.00 43 1008.3
20260504190612 76 299 15.6 20.9 0.00 0.00 0.00 43 1008.1
20260504190108 77 328 11.3 17.4 0.00 0.00 0.00 45 1008.3
20260504185605 77 287 10.4 21.7 0.00 0.00 0.00 45 1007.9
20260504185101 77 260 13.0 19.1 0.00 0.00 0.00 44 1007.8
20260504184557 77 284 12.2 20.9 0.00 0.00 0.00 43 1007.5
20260504184052 77 286 11.3 22.6 0.00 0.00 0.00 43 1007.6
20260504183550 77 276 14.8 17.4 0.00 0.00 0.00 45 1007.6
20260504183048 77 287 17.4 21.7 0.00 0.00 0.00 45 1007.6
20260504182545 77 275 13.9 20.0 0.00 0.00 0.00 46 1007.8
20260504182042 76 277 4.3 12.2 0.00 0.00 0.00 51 1007.8
20260504181539 75 281 12.2 15.6 0.00 0.00 0.00 49 1008.3
20260504181037 75 269 6.1 11.3 0.00 0.00 0.00 53 1008.0
20260504180536 75 306 9.6 14.8 0.00 0.00 0.00 51 1008.3
20260504180034 75 301 10.4 12.2 0.00 0.00 0.00 51 1008.3
20260504175531 74 291 7.0 18.2 0.00 0.00 0.00 55 1008.6
20260504175028 74 221 5.2 11.3 0.00 0.00 0.00 57 1008.5
20260504174526 73 272 6.1 11.3 0.00 0.00 0.00 57 1008.7
20260504174022 73 283 6.1 7.8 0.00 0.00 0.00 56 1009.0
20260504173519 73 284 7.8 9.6 0.00 0.00 0.00 55 1008.8
20260504173017 73 297 10.4 13.9 0.00 0.00 0.00 54 1009.1
20260504172513 74 250 3.5 8.7 0.00 0.00 0.00 55 1009.2
20260504172009 74 289 7.8 9.6 0.00 0.00 0.00 55 1009.4
20260504171506 74 308 7.8 11.3 0.00 0.00 0.00 57 1009.5
20260504171003 74 315 5.2 7.0 0.00 0.00 0.00 55 1009.5
20260504170500 74 286 6.1 12.2 0.00 0.00 0.00 56 1009.8
20260504160419 74 290 9.6 18.2 0.00 0.00 0.00 57 1010.4
20260504150843 70 279 9.6 13.9 0.00 0.00 0.00 63 1010.2
20260504150340 70 317 10.4 15.6 0.00 0.00 0.00 64 1010.1
20260504141310 67 289 7.0 13.0 0.00 0.00 0.00 69 1010.7
20260504140806 66 310 7.0 11.3 0.00 0.00 0.00 72 1011.0
20260504140302 66 274 7.0 11.3 0.00 0.00 0.00 71 1011.0
20260504130731 63 248 6.1 7.8 0.00 0.00 0.00 75 1011.5
20260504130226 62 279 6.1 7.0 0.00 0.00 0.00 76 1011.3
20260504120151 60 205 2.6 2.6 0.00 0.00 0.00 77 1011.5
20260504110618 60 191 0.9 1.7 0.00 0.00 0.00 76 1011.3
20260504110114 61 193 0.9 1.7 0.00 0.00 0.00 76 1011.1
20260504100540 61 190 0.0 0.0 0.00 0.00 0.00 75 1011.2
20260504081933 58 161 1.7 1.7 0.00 0.00 0.00 80 1011.7
20260504081430 59 187 0.0 0.0 0.00 0.00 0.00 77 1011.5
20260504080926 59 136 0.0 0.9 0.00 0.00 0.00 77 1011.8
20260504080423 59 142 0.0 0.0 0.00 0.00 0.00 77 1011.6